Regional Weather Roundup
Issued by NWS

Home | Current Version | Previous Version | Graphics & Text | Print | Product List | Glossary On
Versions: 1 2 3 4 5 6 7 8 9 10 11 12 13 14 15 16 17 18 19 20 21 22 23 24 25 26 27 28 29 30 31 32 33 34 35 36 37 38 39 40 41 42 43 44 45 46 47 48 49 50
781
ASUS43 KMKX 231400
RWRWI

WISCONSIN REGIONAL WEATHER ROUNDUP
NATIONAL WEATHER SERVICE MILWAUKEE/SULLIVAN WI
900 AM CDT SUN JUL 23 2017

NOTE: "FAIR" INDICATES FEW OR NO CLOUDS BELOW 12,000 FEET WITH NO
SIGNIFICANT WEATHER AND/OR OBSTRUCTIONS TO VISIBILITY.

WIZ001-002-006>008-014>016-023>028-231500-
NORTHWEST WISCONSIN

CITY           SKY/WX    TMP DP  RH WIND       PRES   REMARKS
SUPERIOR ARPT  NOT AVBL
ASHLAND        CLOUDY    58  57  97 NE8       29.89R FOG
HAYWARD        CLOUDY    61  57  87 NE7       29.89R
SIREN          CLOUDY    61  58  88 N9        29.90R
CUMBERLAND     PTSUNNY   63  55  77 N10G20    29.88R
RICE LAKE      SUNNY     66  58  75 NW9       29.88S
CHETEK         SUNNY     68  61  78 NW5       29.86S
LADYSMITH      SUNNY     67  60  78 NW12      29.87R
EAU CLAIRE     NOT AVBL
MENOMONIE      MOSUNNY   70  60  69 NW9       29.86S
NEW RICHMOND   SUNNY     68  59  73 N8        29.89R
OSCEOLA        SUNNY     67  58  73 N9        29.91S
$$

WIZ003>005-009-010-017-018-231500-
NORTH CENTRAL WISCONSIN

CITY           SKY/WX    TMP DP  RH WIND       PRES   REMARKS
MANITOWISH WTR CLOUDY    58  58 100 N6        29.86S
ARBOR VITAE    CLOUDY    62  60  93 N7        29.86R
WOODRUFF       CLOUDY    62  60  93 N7        29.86R
RHINELANDER    PTSUNNY   67  62  84 N8        29.85S
EAGLE RIVER    CLOUDY    61  61 100 NW5       29.84S
LAND O LAKES   RAIN      60  60 100 N7        29.87S
PHILLIPS       CLOUDY    59  59 100 N6        29.86R
TOMAHAWK         N/A     61  60  97 NW6       29.85S
MEDFORD        CLOUDY    66  60  80 N3        29.84S
MERRILL        SUNNY     69  62  79 N5        29.83S
$$

WIZ029-030-035-036-043>047-231500-
CENTRAL WISCONSIN

CITY           SKY/WX    TMP DP  RH WIND       PRES   REMARKS
WAUSAU         SUNNY     71  63  75 NW8       29.81S
MOSINEE        MOSUNNY   70  64  83 NW7       29.84R
MARSHFIELD     CLOUDY    69  61  75 NW6       29.83R
STEVENS POINT  CLOUDY    67  64  90 CALM      29.83S
WAUPACA        CLOUDY    73  68  84 SW6       29.80F
WAUTOMA        CLOUDY    70  66  87 NW7       29.82S
WISC RAPIDS    CLOUDY    69  65  86 W6        29.84R
CAMP DOUGLAS   LGT RAIN  70  68  94 W12       29.85R
$$

WIZ011>013-019>022-031-037>040-048>050-231500-
NORTHEAST WISCONSIN

CITY           SKY/WX    TMP DP  RH WIND       PRES   REMARKS
ANTIGO         SUNNY     68  63  82 N8        29.83S
SHAWANO        CLOUDY    72  67  83 W7        29.79R
OCONTO         CLOUDY    67  66  94 N5        29.78R
STURGEON BAY     N/A     68  66  93 MISG      29.78R
GREEN BAY      CLOUDY    72  71  97 W6        29.78R
MANITOWOC      NOT AVBL
APPLETON       PTSUNNY   70  70 100 W7        29.79R
CLINTONVILLE   CLOUDY    72  64  78 W7        29.80R
OSHKOSH        LGT RAIN  73  68  84 W8        29.79S
$$

WIZ032>034-041-042-053>061-231500-
SOUTHWEST WISCONSIN

CITY           SKY/WX    TMP DP  RH WIND       PRES   REMARKS
LA CROSSE      PTSUNNY   73  69  87 CALM      29.83F
SPARTA         CLOUDY    64  64 100 CALM      29.85S
VIROQUA        MOSUNNY   72  68  89 N5        29.86S
BOSCOBEL       MOSUNNY   73  69  87 CALM      29.84S
PRAIRIE DU CHI PTSUNNY   73  70  91 CALM      29.84S
PLATTEVILLE    CLOUDY    71  71 100 CALM      29.85S VSB 1/4
$$

WIZ056-057-062-063-064-067-068-231500-
SOUTH CENTRAL WISCONSIN

CITY           SKY/WX    TMP DP  RH WIND       PRES   REMARKS
REEDSBURG      CLOUDY    72  69  92 NW6       29.84S
BARABOO/DELLS  CLOUDY    71  65  79 W5        29.84R
LONE ROCK      NOT AVBL
MINERAL POINT  SUNNY     73  73 100 NW5       29.86R
MADISON        MOSUNNY   76  67  73 NW5       29.82R
MIDDLETON      SUNNY     77  72  85 W7        29.84S
WATERTOWN      MOSUNNY   73  72  96 W3        29.81S
MONROE         SUNNY     73  68  83 W5        29.84R
JANESVILLE     SUNNY     77  70  78 CALM      29.82R
$$

WIZ051-052-058>065-066-070>072-231500-
SOUTHEAST WISCONSIN

CITY           SKY/WX    TMP DP  RH WIND       PRES   REMARKS
MILWAUKEE      MOSUNNY   75  71  87 SW8       29.79F
WAUKESHA       SUNNY     73  70  88 SW5       29.81F
MILWAUKEE/TIMM SUNNY     75  66  73 SW5       29.80F
RACINE         PTSUNNY   75  73  93 S6        29.81F
KENOSHA        MOSUNNY   77  71  82 SW3       29.81S
FOND DU LAC    SUNNY     76  68  76 W6        29.80S
SHEBOYGAN      MOSUNNY   75  72  90 W12       29.78S
WEST BEND      SUNNY     73  70  88 W8        29.80S
JUNEAU         MOSUNNY   72  68  88 W6        29.82S
$$

LSZ147-162-231500-
LAKE SUPERIOR

STATION/POSITION TIME  TEMP    WIND        PRES    WAVE
                       AIR SEA DIR/SP/G            HT/PER
                 (UTC) (F)     (DEG/KT/KT) (MB)    (FT/S)
W MID LAKE BUOY  1250   50 47   30/ 12/ 14 1011.0R   2/ 5
DEVILS ISLAND    1300   56      10/ 10/ 11 1012.1R
SAXON HARBOR     1340   57      20/  5/  6 1011.9R
$$

LMZ867-665-643>646-231500-
LAKE MICHIGAN

STATION/POSITION TIME  TEMP    WIND        PRES    WAVE
                       AIR SEA DIR/SP/G            HT/PER
                 (UTC) (F)     (DEG/KT/KT) (MB)    (FT/S)
CHAMBERS ISLAND  1340   69     320/  6/  8 1007.5R
S GREEN BAY BUOY 1330   67 73  350/  8/ 10 1008.4R
N MID LAKE BUOY  1250   67 68  200/  8/ 10 1007.8R   0
NORTHPORT PIER   1340   69     320/ 11/ 14 1007.8S
KEWAUNEE LAKESHO 1330   73     300/  5/  8 1006.9F
SHEBOYGAN LAKESH 1300   70     230/  8/  9 1007.8S
PORT WASHINGTON  1330   78     240/  5/  7 1009.1F
ATWATER BUOY     1209   70 69  200/  6/  8 1009.1F
MILWAUKEE LAKESH 1330   71     190/  5/  5   N/A
S MID LAKE BUOY  1250   70 70  110/  8/  8 1008.8F   0
KENOSHA   LAKESH 1300   71      40/  2/  2 1009.1
$$

TC  - TEMPERATURE IN CELSIUS
VSB - VISIBILITY IN STATUTE MILES
WCI - WIND CHILL INDEX
HX  - HEAT INDEX





USA.gov is the U.S. government's official web portal to all federal, state and local government web resources and services.